Sigil TimeFrame

Sigil TimeFrame ⇒ XML

NameTime LeftWindow Opens
Animated Captain20d 13:022018-09-29 18:20:00
Old World Drake20d 12:072018-09-29 19:15:00
Xynak, the Arcane Master1d 20:432018-10-18 10:39:00
Anvilfist1d 12:542018-10-18 18:28:00
Viserion, the Necrodragon0d 23:292018-10-19 07:53:00
Raiyar, the Shadow Master0d 15:492018-10-19 15:33:00
Nar Zhul, Slayer of All0d 12:212018-10-19 19:01:00
Lord Suka0d 11:572018-10-19 19:25:00
Numerocure, The Black Messenger of Evil0d 10:582018-10-19 20:24:00
Murderface0d 10:082018-10-19 21:14:00
Rancid, Lord of Thugs0d 09:502018-10-19 21:32:00
Terrance, Rebel of Rallis0d 08:022018-10-19 23:20:00
Dreg nor, Keeper of the Infernal Essence0d 07:562018-10-19 23:26:00
Dlanod, the Crazed Chancellor0d 06:342018-10-20 00:48:00
Vitkros, Hydra of the Deep0d 04:592018-10-20 02:23:00
Melt Bane, The Forbidden Demon Dragon0d 04:282018-10-20 02:54:00
Garland, The Lord Keeper0d 04:042018-10-20 03:18:00
Synge, The Red Dragon0d 03:192018-10-20 04:03:00
Hyrak, Bringer of Nightmares0d 02:502018-10-20 04:32:00
Nessam0d 02:472018-10-20 04:35:00
Hackerphage, Protector of the Gateway0d 01:212018-10-20 06:01:00
Q-SEC Commander0d 02:192018-10-20 09:42:00
Mistress of the Sword0d 02:532018-10-20 10:16:00
Tylos, The Lord Master0d 02:592018-10-20 10:22:00
Lady Ariella0d 03:102018-10-20 10:33:00
Kretok, Descendant of Nature0d 03:132018-10-20 10:36:00
Anguish0d 06:012018-10-20 13:24:00
Lord Xordam0d 07:452018-10-20 15:08:00
Wanhiroeaz the Devourer0d 09:042018-10-20 16:27:00
Rotborn, Eater of the Dead0d 09:312018-10-20 16:54:00
Ancient Magus Tarkin0d 09:452018-10-20 17:08:00
Ebliss, Fallen Angel of Despair0d 10:352018-10-20 17:58:00
Crane0d 10:532018-10-20 18:16:00
Lord Varan0d 11:452018-10-20 19:08:00
Zertan, The Collector0d 12:512018-10-20 20:14:00
Archdevil Yirkon0d 12:552018-10-20 20:18:00
Brutalitar, Lord of the Underworld0d 13:012018-10-20 20:24:00
Howldroid, Tormentor of the Pit0d 13:042018-10-20 20:27:00
Baron Mu, Dark Rider of the Undead0d 13:172018-10-20 20:40:00
Shadow0d 13:392018-10-20 21:02:00
Lord Sibannac0d 14:202018-10-20 21:43:00
Freezebreed, The Frozen Manipulator0d 14:542018-10-20 22:17:00
Lord Narada0d 16:492018-10-21 00:12:00
Jorun the Blazing Swordsman0d 17:242018-10-21 00:47:00
The Emerald Assassin0d 18:152018-10-21 01:38:00
Jazzmin, Maiden of Vitality0d 18:472018-10-21 02:10:00
Volgan the Living Ironbark0d 18:512018-10-21 02:14:00
Zikkir the Dark Archer0d 19:262018-10-21 02:49:00
Lady Chaos, Queen of the Abyss0d 22:212018-10-21 05:44:00
Samatha Dark-Soul1d 00:122018-10-21 07:35:00
Sarcrina the Astral Priestess1d 00:132018-10-21 07:36:00
Smoot the Yeti1d 01:172018-10-21 08:40:00
Skarthul the Avenged1d 01:302018-10-21 08:53:00
Tsort1d 02:552018-10-21 10:18:00
Pinosis1d 02:572018-10-21 10:20:00
Sylvanna TorLai1d 06:372018-10-21 14:00:00
Traxodon the Plaguebringer1d 07:582018-10-21 15:21:00
Gnorb1d 08:092018-10-21 15:32:00
Varsanor, Master of Darkness1d 09:282018-10-21 16:51:00
Windstrike The Vile1d 10:422018-10-21 18:05:00
Slashbrood, Devourer of the Blackness1d 10:532018-10-21 18:16:00
Detox1d 15:072018-10-21 22:30:00
Ganja the Stone Golem1d 16:502018-10-22 00:13:00
Threk, King of Lords1d 21:092018-10-22 04:32:00
Balerion, Dragon of Dread1d 23:182018-10-22 06:41:00
Keeper of Nature1d 23:222018-10-22 06:45:00
Bloodchill the Grizzly1d 23:482018-10-22 07:11:00
Amalgamated Apparition1d 23:482018-10-22 07:11:00
Great Lord Ganeshan2d 06:282018-10-22 13:51:00
Grivvek, Protector of the Brood2d 07:412018-10-22 15:04:00
Nayark the Mummified Sorcerer2d 08:202018-10-22 15:43:00
Skybrine The Inescapable2d 10:082018-10-22 17:31:00
Akkel the Enflamed Warrior2d 11:542018-10-22 19:17:00
Ormsul the Putrid2d 15:542018-10-22 23:17:00
Crolvak, the Fire Master2d 16:162018-10-22 23:39:00
King Ashnar, Lord of the Unliving2d 18:052018-10-23 01:28:00
Quiver, The Renegade2d 21:192018-10-23 04:42:00
Straya, the Underworld Ruler3d 02:452018-10-23 10:08:00
Gorganus of the Wood3d 03:352018-10-23 10:58:00
Nafir, God of Desolation3d 06:022018-10-23 13:25:00
Bolkor, the Holy Master3d 07:592018-10-23 15:22:00
Ag Nabak the Abomination3d 08:522018-10-23 16:15:00
Crantos, Defender of Ultimation3d 11:302018-10-23 18:53:00
Esquin, the Kinetic Master3d 13:202018-10-23 20:43:00
Sigil, Lich of Woe3d 14:462018-10-23 22:09:00
Emperor Neudeus, Controller of the Universe3d 15:432018-10-23 23:06:00
Lacuste of the Swarm4d 16:112018-10-24 23:34:00
Felroc, Overseer of Hellfire4d 18:022018-10-25 01:25:00
Karvaz, Lord of Alsayic4d 18:212018-10-25 01:44:00
Kro Shuk, Doomslayer6d 06:292018-10-26 13:52:00
Shaik, Servant of Arkron105d 02:572018-07-07 04:25:00
Rook, Hand of Arkron103d 04:472018-07-09 02:35:00
Beast of Cards45d 18:392018-09-04 12:43:00
Noxious Slug39d 08:012018-09-10 23:21:00
Jade Dragonite20d 12:152018-09-29 19:07:00
95 Gods, Last update: 2018-10-20 07:00:21